Weather History for Manassas, VA

Change the Weather History Date:

Thursday, February 20, 2014

  Actual Average Record
Temperature  
Mean Temperature 40 °F -  
Max Temperature 53 °F 46 °F 64 °F (2001)
Min Temperature 28 °F 25 °F 19 °F (2005)
Degree Days  
Heating Degree Days 24    
Moisture  
Dew Point 31 °F    
Average Humidity 70    
Maximum Humidity 100    
Minimum Humidity 38    
Precipitation  
Precipitation 0.00 in - - ()
Sea Level Pressure  
Sea Level Pressure 30.11 in    
Wind  
Wind Speed 4 mph (SE)    
Max Wind Speed 13 mph    
Max Gust Speed -    
Visibility 10 miles    
Events      
Averages and records for this station are not official NWS values.
T = Trace of Precipitation, MM = Missing Value Source: NWS Daily Summary

Daily Weather History Graph

Daily Weather History Graph

Search for Another Location

Airport:

Trip Planner

Search our weather history database for the weather conditions in past years. The results will help you decide how hot, cold, wet, or windy it might be!

Date:

Astronomy

Feb. 20, 2014 Rise Set
Actual Time 6:54 AM EST 5:53 PM EST
Civil Twilight 6:27 AM EST 6:20 PM EST
Nautical Twilight 5:56 AM EST 6:51 PM EST
Astronomical Twilight 5:26 AM EST 7:22 PM EST
Moon 11:41 PM EST (2/20) 9:40 AM EST (2/20)
Length of Visible Light 11h 52m
Length of Day
10h 58m
Waning Gibbous, 71% of the Moon is Illuminated
Feb 20
Waning Gibbous
Feb 22
Last Quarter
Mar 1
New
Mar 8
First Quarter
Mar 16
Full

Hourly Weather History & Observations

Time (EST) Temp. Windchill Dew Point Humidity Pressure Visibility Wind Dir Wind Speed Gust Speed Precip Events Conditions
12:15 AM 39.2 °F 35.0 °F 32.0 °F 75% 30.16 in 10.0 mi SE 5.8 mph - N/A   Clear
12:35 AM 37.4 °F 32.8 °F 32.0 °F 81% 30.15 in 10.0 mi North 5.8 mph - N/A   Clear
12:55 AM 42.8 °F 38.6 °F 30.2 °F 61% 30.15 in 10.0 mi North 6.9 mph - N/A   Clear
1:15 AM 39.2 °F 35.9 °F 32.0 °F 75% 30.15 in 10.0 mi ENE 4.6 mph - N/A   Clear
1:35 AM 44.6 °F 42.2 °F 30.2 °F 57% 30.15 in 10.0 mi NNE 4.6 mph - N/A   Clear
1:55 AM 37.4 °F - 32.0 °F 81% 30.17 in 10.0 mi Calm Calm - N/A   Clear
2:15 AM 35.6 °F - 32.0 °F 87% 30.18 in 10.0 mi Calm Calm - N/A   Clear
2:35 AM 35.6 °F - 30.2 °F 81% 30.18 in 10.0 mi Calm Calm - N/A   Clear
2:55 AM 33.8 °F - 30.2 °F 87% 30.18 in 10.0 mi Calm Calm - N/A   Clear
3:15 AM 33.8 °F 30.8 °F 30.2 °F 87% 30.17 in 10.0 mi NNW 3.5 mph - N/A   Clear
3:35 AM 33.8 °F - 30.2 °F 87% 30.18 in 10.0 mi Calm Calm - N/A   Clear
3:55 AM 32.0 °F - 30.2 °F 93% 30.19 in 10.0 mi Calm Calm - N/A   Clear
4:15 AM 33.8 °F - 30.2 °F 87% 30.19 in 10.0 mi Calm Calm - N/A   Clear
4:35 AM 32.0 °F - 30.2 °F 93% 30.21 in 10.0 mi Calm Calm - N/A   Clear
4:55 AM 32.0 °F - 30.2 °F 93% 30.22 in 10.0 mi Calm Calm - N/A   Clear
5:15 AM 30.2 °F - 30.2 °F 100% 30.24 in 10.0 mi Calm Calm - N/A   Clear
5:35 AM 30.2 °F - 30.2 °F 100% 30.23 in 10.0 mi Calm Calm - N/A   Clear
5:55 AM 30.2 °F - 28.4 °F 93% 30.23 in 10.0 mi Calm Calm - N/A   Clear
6:15 AM 28.4 °F - 26.6 °F 93% 30.22 in 10.0 mi Calm Calm - N/A   Clear
6:35 AM 28.4 °F - 26.6 °F 93% 30.23 in 10.0 mi Calm Calm - N/A   Clear
9:55 AM 44.6 °F 43.1 °F 35.6 °F 71% 30.26 in 10.0 mi South 3.5 mph - N/A   Clear
11:45 AM 51.8 °F - 26.6 °F 38% 30.24 in 10.0 mi SSE 12.7 mph - N/A   Clear
12:55 PM 53.6 °F - 28.4 °F 38% 30.15 in 10.0 mi SSE 11.5 mph - N/A   Scattered Clouds
1:15 PM 51.8 °F - 28.4 °F 41% 30.14 in 10.0 mi SSE 9.2 mph - N/A   Overcast
1:35 PM 53.6 °F - 28.4 °F 38% 30.13 in 10.0 mi SSE 8.1 mph - N/A   Overcast
1:55 PM 53.6 °F - 28.4 °F 38% 30.12 in 10.0 mi SSE 10.4 mph - N/A   Overcast
2:15 PM 51.8 °F - 30.2 °F 44% 30.11 in 10.0 mi SSE 6.9 mph - N/A   Overcast
2:35 PM 51.8 °F - 30.2 °F 44% 30.10 in 10.0 mi SE 10.4 mph - N/A   Overcast
2:55 PM 51.8 °F - 32.0 °F 47% 30.11 in 10.0 mi SSE 6.9 mph - N/A   Overcast
3:15 PM 51.8 °F - 32.0 °F 47% 30.09 in 10.0 mi SE 10.4 mph - N/A   Overcast
3:35 PM 51.8 °F - 32.0 °F 47% 30.08 in 10.0 mi SSE 8.1 mph - N/A   Overcast
3:55 PM 51.8 °F - 32.0 °F 47% 30.08 in 10.0 mi SSE 6.9 mph - N/A   Overcast
4:15 PM 50.0 °F - 30.2 °F 47% 30.07 in 10.0 mi SE 10.4 mph - N/A   Overcast
4:35 PM 48.2 °F - 30.2 °F 50% 30.06 in 10.0 mi SE 8.1 mph - N/A   Overcast
4:55 PM 48.2 °F - 30.2 °F 50% 30.07 in 10.0 mi SSE 4.6 mph - N/A   Mostly Cloudy
5:15 PM 48.2 °F - 30.2 °F 50% 30.07 in 10.0 mi SE 3.5 mph - N/A   Scattered Clouds
5:35 PM 46.4 °F - 33.8 °F 62% 30.08 in 10.0 mi Calm Calm - N/A   Clear
5:55 PM 46.4 °F 45.2 °F 32.0 °F 57% 30.07 in 10.0 mi SE 3.5 mph - N/A   Clear
6:15 PM 46.4 °F 45.2 °F 28.4 °F 50% 30.06 in 10.0 mi SSE 3.5 mph - N/A   Clear
6:35 PM 44.6 °F 43.1 °F 30.2 °F 57% 30.07 in 10.0 mi SSE 3.5 mph - N/A   Clear
6:55 PM 44.6 °F 42.2 °F 30.2 °F 57% 30.06 in 10.0 mi SSE 4.6 mph - N/A   Clear
7:15 PM 44.6 °F 41.4 °F 30.2 °F 57% 30.05 in 10.0 mi SSE 5.8 mph - N/A   Clear
7:35 PM 44.6 °F - 32.0 °F 61% 30.04 in 10.0 mi Calm Calm - N/A   Clear
7:55 PM 42.8 °F - 33.8 °F 70% 30.04 in 10.0 mi Calm Calm - N/A   Clear
8:15 PM 41.0 °F - 33.8 °F 76% 30.04 in 10.0 mi Calm Calm - N/A   Clear
8:35 PM 41.0 °F - 33.8 °F 76% 30.04 in 10.0 mi Calm Calm - N/A   Clear
8:55 PM 41.0 °F - 33.8 °F 76% 30.03 in 10.0 mi Calm Calm - N/A   Clear
9:15 PM 39.2 °F - 35.6 °F 87% 30.02 in 10.0 mi Calm Calm - N/A   Clear
9:35 PM 39.2 °F - 33.8 °F 81% 30.01 in 10.0 mi Calm Calm - N/A   Clear
9:55 PM 37.4 °F - 35.6 °F 93% 30.00 in 10.0 mi Calm Calm - N/A   Clear
10:15 PM 39.2 °F - 35.6 °F 87% 29.99 in 10.0 mi Calm Calm - N/A   Clear
10:35 PM 37.4 °F - 35.6 °F 93% 29.98 in 10.0 mi Calm Calm - N/A   Clear
10:55 PM 37.4 °F - 35.6 °F 93% 29.97 in 10.0 mi Calm Calm - N/A   Clear
11:15 PM 37.4 °F - 33.8 °F 87% 29.96 in 10.0 mi Calm Calm - N/A   Clear
11:35 PM 37.4 °F - 33.8 °F 87% 29.95 in 10.0 mi Calm Calm - N/A   Clear
11:55 PM 37.4 °F - 33.8 °F 87% 29.95 in 10.0 mi Calm Calm - N/A   Clear